Weather in Cherlakskiy

Russia / Omsk Oblast     54°16′15″N   75°04′03″E
temp.,
°C
wind,
m/s
gust,
m/s
humid.,
%
clouds,
%
prec.,
mm/h
press.,
hPa
HPBL,
m
13 may, thu
thu1300:00+13n7125078 0.1 1019586
03:00+11n51054100 0.0 1020431
06:00+9nnw496397 0.0 1021389
09:00+12nnw71038100 0.0 10211069
12:00+15nw793198 0.0 10201346
15:00+9nw7869100 0.4 1021460
18:00+11nw476672 0.6 1020543
21:00+10nne337499 0.0 102051
14 may, fri
fri1400:00+9n4108380 0.0 1021285
03:00+8n4109199 0.0 1023234
06:00+8n4108979 0.0 1025262
09:00+13n46672 0.0 1026777
12:00+17n45360 0.0 10261315
15:00+20nnw45240 0.0 10261656
18:00+20nnw45214 0.0 10261522
21:00+16wnw22315 0.0 102611
15 may, sat
sat1500:00+14wsw22375 0.0 102512
03:00+14sw4939100 0.0 1024132
06:00+14sw4114698 0.0 1024211
09:00+19wsw6104576 0.4 1023402
12:00+26w793367 0.7 10211272
15:00+29w792459 0.0 10193516
18:00+28wnw582742 0.0 10182670
21:00+23wnw34405 0.0 101738
16 may, sun
sun1600:00+21wsw4644100 0.0 101776
03:00+18wnw456295 1.4 101790
06:00+17nw377129 1.5 1017144
09:00+21nw685264 0.0 1018622
12:00+25nnw453962 0.0 10181386
15:00+27nw3432100 0.0 10172352
18:00+27wnw453275 0.0 10172357
21:00+22wnw34465 0.0 101749
17 may, mon
mon1700:00+21w114999 0.0 101711
03:00+20sw335289 0.0 101724
06:00+19wsw475756 0.0 1018112
09:00+25wsw584096 0.0 1017468
12:00+30w572927 0.0 10161567
15:00+32w582064 0.0 10143947
18:00+30wnw3626100 0.0 1012156
21:00+25wnw223392 0.0 101115